Hourly Weather Jubbada Hoose

Today, 5 December, Saturday

Time Temperature Precipitation Wind Pressure Humidity
00:00 +27°C° 0 mm 3 mps 756 mmHg 84%
01:00 +26°C° 0 mm 2 mps 755 mmHg 86%
02:00 +26°C° 0 mm 2 mps 755 mmHg 88%
03:00 +26°C° 0 mm 1 mps 755 mmHg 90%
04:00 +26°C° 0 mm 1 mps 755 mmHg 91%
05:00 +25°C° 0 mm 1 mps 755 mmHg 92%
06:00 +25°C° 0 mm 1 mps 756 mmHg 94%
07:00 +27°C° 0 mm 1 mps 756 mmHg 84%
08:00 +29°C° 0 mm 2 mps 757 mmHg 75%
09:00 +30°C° 0 mm 2 mps 757 mmHg 65%
10:00 +32°C° 0 mm 2 mps 756 mmHg 58%
11:00 +35°C° 0 mm 2 mps 756 mmHg 50%
12:00 +37°C° 0 mm 2 mps 755 mmHg 42%
13:00 +37°C° 0 mm 2 mps 754 mmHg 39%
14:00 +38°C° 0 mm 2 mps 753 mmHg 37%
15:00 +38°C° 0 mm 2 mps 753 mmHg 34%
16:00 +37°C° 0 mm 2 mps 753 mmHg 38%
17:00 +36°C° 0 mm 3 mps 753 mmHg 43%
18:00 +35°C° 0 mm 3 mps 753 mmHg 47%
19:00 +33°C° 0 mm 4 mps 753 mmHg 55%
20:00 +30°C° 0 mm 4 mps 754 mmHg 62%
21:00 +28°C° 0 mm 5 mps 755 mmHg 70%
22:00 +28°C° 0 mm 4 mps 755 mmHg 73%
23:00 +27°C° 0 mm 3 mps 755 mmHg 75%

Tomorrow, 6 December, Sunday

Time Temperature Precipitation Wind Pressure Humidity
00:00 +27°C° 0 mm 3 mps 755 mmHg 78%
01:00 +27°C° 0 mm 2 mps 754 mmHg 80%
02:00 +26°C° 0 mm 2 mps 754 mmHg 82%
03:00 +26°C° 0 mm 2 mps 754 mmHg 84%
04:00 +26°C° 0 mm 2 mps 755 mmHg 86%
05:00 +25°C° 0 mm 1 mps 755 mmHg 88%
06:00 +25°C° 0 mm 1 mps 755 mmHg 89%
07:00 +27°C° 0 mm 1 mps 756 mmHg 80%
08:00 +29°C° 0 mm 2 mps 756 mmHg 70%
09:00 +31°C° 0 mm 2 mps 757 mmHg 61%
10:00 +34°C° 0 mm 2 mps 756 mmHg 54%
11:00 +35°C° 0 mm 2 mps 756 mmHg 47%
12:00 +37°C° 0 mm 2 mps 755 mmHg 41%
13:00 +38°C° 0 mm 2 mps 754 mmHg 37%
14:00 +39°C° 0 mm 1 mps 754 mmHg 34%
15:00 +39°C° 0 mm 1 mps 753 mmHg 31%
16:00 +38°C° 0 mm 2 mps 753 mmHg 38%
17:00 +36°C° 0 mm 3 mps 753 mmHg 45%
18:00 +34°C° 0 mm 4 mps 753 mmHg 53%
19:00 +33°C° 0.1 mm 4 mps 753 mmHg 59%
20:00 +30°C° 0.1 mm 5 mps 754 mmHg 66%
21:00 +29°C° 0.1 mm 5 mps 755 mmHg 73%
22:00 +28°C° 0 mm 4 mps 754 mmHg 76%
23:00 +28°C° 0 mm 4 mps 754 mmHg 79%

Day after tomorrow, 7 December, Monday

Time Temperature Precipitation Wind Pressure Humidity
00:00 +27°C° 0 mm 3 mps 754 mmHg 82%
01:00 +27°C° 0 mm 3 mps 754 mmHg 84%
02:00 +27°C° 0 mm 2 mps 754 mmHg 86%
03:00 +26°C° 0 mm 2 mps 754 mmHg 88%
04:00 +26°C° 0 mm 2 mps 754 mmHg 90%
05:00 +26°C° 0 mm 1 mps 755 mmHg 91%
06:00 +26°C° 0 mm 1 mps 755 mmHg 93%
07:00 +28°C° 0 mm 2 mps 756 mmHg 83%
08:00 +29°C° 0 mm 2 mps 756 mmHg 74%
09:00 +31°C° 0 mm 2 mps 757 mmHg 64%
10:00 +34°C° 0 mm 2 mps 756 mmHg 57%
11:00 +36°C° 0 mm 2 mps 755 mmHg 49%
12:00 +38°C° 0 mm 2 mps 755 mmHg 41%
13:00 +38°C° 0 mm 2 mps 754 mmHg 41%
14:00 +38°C° 0 mm 2 mps 754 mmHg 40%
15:00 +38°C° 0 mm 2 mps 753 mmHg 39%
16:00 +37°C° 0 mm 3 mps 753 mmHg 44%
17:00 +35°C° 0 mm 4 mps 753 mmHg 49%
18:00 +34°C° 0 mm 4 mps 753 mmHg 54%
19:00 +33°C° 0.2 mm 5 mps 754 mmHg 62%
20:00 +30°C° 0.2 mm 5 mps 755 mmHg 70%
21:00 +28°C° 0.2 mm 5 mps 755 mmHg 77%
22:00 +28°C° 0 mm 4 mps 755 mmHg 79%
23:00 +28°C° 0 mm 3 mps 755 mmHg 82%

8 December, Tuesday

Time Temperature Precipitation Wind Pressure Humidity
00:00 +27°C° 0 mm 2 mps 755 mmHg 84%
01:00 +27°C° 0 mm 2 mps 755 mmHg 85%
02:00 +27°C° 0 mm 2 mps 755 mmHg 87%
03:00 +26°C° 0 mm 2 mps 754 mmHg 88%
04:00 +26°C° 0 mm 2 mps 755 mmHg 90%
05:00 +26°C° 0 mm 2 mps 755 mmHg 91%
06:00 +26°C° 0 mm 1 mps 756 mmHg 92%
07:00 +28°C° 0 mm 2 mps 756 mmHg 83%
08:00 +30°C° 0 mm 2 mps 757 mmHg 73%
09:00 +33°C° 0 mm 3 mps 757 mmHg 63%
10:00 +34°C° 0 mm 2 mps 756 mmHg 56%
11:00 +36°C° 0 mm 2 mps 756 mmHg 49%
12:00 +37°C° 0 mm 1 mps 755 mmHg 41%
13:00 +37°C° 0 mm 1 mps 754 mmHg 41%
14:00 +37°C° 0 mm 1 mps 754 mmHg 40%
15:00 +37°C° 0 mm 1 mps 753 mmHg 39%
16:00 +36°C° 0.7 mm 2 mps 753 mmHg 49%
17:00 +33°C° 0.7 mm 4 mps 754 mmHg 59%
18:00 +30°C° 0.7 mm 5 mps 754 mmHg 70%
19:00 +29°C° 0.4 mm 4 mps 754 mmHg 73%
20:00 +29°C° 0.4 mm 4 mps 755 mmHg 77%
21:00 +28°C° 0.4 mm 4 mps 756 mmHg 80%
22:00 +28°C° 0 mm 4 mps 756 mmHg 82%
23:00 +27°C° 0 mm 3 mps 756 mmHg 84%

9 December, Wednesday

Time Temperature Precipitation Wind Pressure Humidity
00:00 +27°C° 0 mm 3 mps 755 mmHg 86%
01:00 +26°C° 0 mm 3 mps 755 mmHg 87%
02:00 +26°C° 0 mm 2 mps 755 mmHg 89%
03:00 +26°C° 0 mm 2 mps 754 mmHg 90%
04:00 +26°C° 0 mm 2 mps 755 mmHg 91%
05:00 +26°C° 0 mm 1 mps 755 mmHg 92%
06:00 +25°C° 0 mm 1 mps 755 mmHg 93%
07:00 +27°C° 0 mm 2 mps 756 mmHg 84%
08:00 +29°C° 0 mm 2 mps 756 mmHg 74%
09:00 +31°C° 0 mm 3 mps 756 mmHg 65%
10:00 +34°C° 0 mm 3 mps 756 mmHg 58%
11:00 +35°C° 0 mm 3 mps 755 mmHg 51%
12:00 +37°C° 0 mm 3 mps 755 mmHg 44%
13:00 +37°C° 0 mm 3 mps 754 mmHg 44%
14:00 +36°C° 0 mm 3 mps 753 mmHg 45%
15:00 +36°C° 0 mm 3 mps 753 mmHg 46%
16:00 +35°C° 0 mm 3 mps 753 mmHg 48%
17:00 +34°C° 0 mm 3 mps 753 mmHg 51%
18:00 +33°C° 0 mm 3 mps 753 mmHg 54%
19:00 +31°C° 0.1 mm 3 mps 754 mmHg 61%
20:00 +30°C° 0.1 mm 3 mps 754 mmHg 68%
21:00 +28°C° 0.1 mm 3 mps 754 mmHg 75%
22:00 +28°C° 0 mm 3 mps 754 mmHg 78%
23:00 +27°C° 0 mm 3 mps 754 mmHg 80%

10 December, Thursday

Time Temperature Precipitation Wind Pressure Humidity
00:00 +27°C° 0 mm 2 mps 755 mmHg 83%
01:00 +26°C° 0 mm 2 mps 754 mmHg 84%
02:00 +26°C° 0 mm 2 mps 754 mmHg 86%
03:00 +26°C° 0 mm 2 mps 754 mmHg 88%
04:00 +26°C° 0 mm 2 mps 755 mmHg 90%
05:00 +25°C° 0 mm 2 mps 755 mmHg 92%
06:00 +25°C° 0 mm 2 mps 755 mmHg 94%
07:00 +27°C° 0 mm 2 mps 756 mmHg 84%
08:00 +29°C° 0 mm 3 mps 756 mmHg 73%
09:00 +32°C° 0 mm 4 mps 756 mmHg 63%
10:00 +33°C° 0 mm 4 mps 756 mmHg 54%
11:00 +35°C° 0 mm 4 mps 755 mmHg 44%
12:00 +37°C° 0 mm 4 mps 755 mmHg 35%
13:00 +37°C° 0 mm 4 mps 754 mmHg 33%
14:00 +38°C° 0 mm 4 mps 753 mmHg 30%
15:00 +38°C° 0 mm 4 mps 752 mmHg 28%
16:00 +37°C° 0 mm 4 mps 752 mmHg 30%
17:00 +36°C° 0 mm 3 mps 752 mmHg 32%
18:00 +34°C° 0 mm 2 mps 752 mmHg 35%
19:00 +31°C° 0 mm 3 mps 752 mmHg 45%
20:00 +30°C° 0 mm 4 mps 753 mmHg 55%
21:00 +28°C° 0 mm 4 mps 753 mmHg 65%
22:00 +27°C° 0 mm 4 mps 753 mmHg 71%
23:00 +27°C° 0 mm 3 mps 753 mmHg 77%
Show more